TimePDT,TemperatureF,Dew PointF,Humidity,Sea Level PressureIn,VisibilityMPH,Wind Direction,Wind SpeedMPH,Gust SpeedMPH,PrecipitationIn,Events,Conditions,WindDirDegrees,DateUTC
12:09 AM,60.8,53.6,77,30.05,8.0,North,4.6,-,N/A,,Overcast,10,2013-10-25 07:09:00
12:55 AM,60.1,53.1,78,30.09,8.0,North,4.6,-,N/A,,Mostly Cloudy,360,2013-10-25 07:55:00
1:55 AM,60.1,53.1,78,30.09,7.0,NNE,4.6,-,N/A,,Overcast,30,2013-10-25 08:55:00
2:55 AM,60.1,53.1,78,30.09,7.0,NE,5.8,-,N/A,,Overcast,40,2013-10-25 09:55:00
3:55 AM,59.0,53.1,81,30.09,6.0,Calm,Calm,-,N/A,,Haze,0,2013-10-25 10:55:00
4:55 AM,57.9,53.1,84,30.10,5.0,NNW,9.2,-,N/A,,Haze,340,2013-10-25 11:55:00
5:55 AM,57.9,53.1,84,30.11,5.0,North,6.9,-,N/A,,Haze,350,2013-10-25 12:55:00
6:55 AM,59.0,53.1,81,30.10,5.0,ENE,4.6,-,N/A,,Haze,60,2013-10-25 13:55:00
7:55 AM,57.9,53.1,84,30.13,4.0,Calm,Calm,-,N/A,,Haze,0,2013-10-25 14:55:00
8:55 AM,59.0,54.0,83,30.15,3.0,Calm,Calm,-,N/A,,Haze,0,2013-10-25 15:55:00
9:55 AM,59.0,54.0,83,30.16,3.0,Variable,3.5,-,N/A,,Haze,0,2013-10-25 16:55:00
10:55 AM,60.1,54.0,80,30.15,4.0,WNW,3.5,-,N/A,,Haze,290,2013-10-25 17:55:00
11:55 AM,61.0,54.0,78,30.15,4.0,WNW,3.5,-,N/A,,Haze,290,2013-10-25 18:55:00
12:55 PM,63.0,54.0,72,30.13,4.0,SSW,3.5,-,N/A,,Haze,210,2013-10-25 19:55:00
1:35 PM,62.6,53.6,72,30.07,5.0,SW,3.5,-,N/A,,Haze,230,2013-10-25 20:35:00
1:42 PM,64.4,53.6,68,30.07,5.0,Calm,Calm,-,N/A,,Haze,0,2013-10-25 20:42:00
1:55 PM,64.9,54.0,68,30.09,5.0,WSW,4.6,-,N/A,,Haze,240,2013-10-25 20:55:00
2:55 PM,68.0,55.0,63,30.06,6.0,WSW,3.5,-,N/A,,Haze,240,2013-10-25 21:55:00
3:55 PM,68.0,55.9,65,30.05,6.0,West,6.9,-,N/A,,Haze,260,2013-10-25 22:55:00
4:55 PM,64.9,55.9,73,30.04,7.0,West,8.1,-,N/A,,Clear,280,2013-10-25 23:55:00
5:55 PM,62.1,55.0,78,30.05,8.0,West,6.9,-,N/A,,Clear,270,2013-10-26 00:55:00
6:55 PM,60.1,55.0,83,30.06,9.0,WSW,4.6,-,N/A,,Clear,250,2013-10-26 01:55:00
7:55 PM,60.1,55.0,83,30.07,8.0,Calm,Calm,-,N/A,,Partly Cloudy,0,2013-10-26 02:55:00
8:55 PM,57.9,54.0,87,30.07,8.0,NNE,4.6,-,N/A,,Clear,30,2013-10-26 03:55:00
9:55 PM,55.0,52.0,89,30.09,7.0,WNW,4.6,-,N/A,,Clear,290,2013-10-26 04:55:00
10:55 PM,55.9,53.1,90,30.10,6.0,Calm,Calm,-,N/A,,Clear,0,2013-10-26 05:55:00
11:55 PM,55.9,52.0,87,30.09,5.0,ENE,5.8,-,N/A,,Scattered Clouds,60,2013-10-26 06:55:00